IZ0VWB-3 Weather Reports


time (UTC)temp
C
wind
direction
speed
KPH
gust
KPH
rain 1hr
cm
rain 24hr
cm
rain mn
cm
humidity
%
barometer
mb
20260507082348 17 135 4.8 4.8 0.00 0.08 0.08 81 1001.5
20260507081349 16 115 6.4 6.4 0.00 0.08 0.08 81 1001.5
20260507080348 16 111 3.2 3.2 0.00 0.08 0.08 82 1001.5
20260507075347 16 142 0.0 4.8 0.00 0.08 0.08 83 1001.6
20260507074347 16 113 8.0 11.3 0.00 0.08 0.08 85 1001.6
20260507073347 15 113 3.2 6.4 0.00 0.08 0.08 84 1001.6
20260507072347 15 124 3.2 3.2 0.00 0.08 0.08 83 1001.6
20260507071347 14 107 4.8 9.7 0.00 0.08 0.08 82 1001.5
20260507070347 14 125 3.2 3.2 0.00 0.08 0.08 81 1001.5
20260507065346 14 161 0.0 4.8 0.00 0.08 0.08 80 1001.3
20260507064346 14 98 1.6 3.2 0.00 0.08 0.08 79 1001.3
20260507063347 13 97 3.2 4.8 0.00 0.08 0.08 77 1001.2
20260507062346 13 135 3.2 4.8 0.00 0.08 0.08 76 1001.1
20260507061346 13 141 0.0 3.2 0.00 0.08 0.08 74 1001.1
20260507060347 14 136 4.8 8.0 0.00 0.08 0.08 72 1001.2
20260507055347 14 135 1.6 3.2 0.00 0.08 0.08 71 1001.2
20260507054345 14 134 1.6 9.7 0.00 0.08 0.08 69 1001.0
20260507053346 13 125 1.6 3.2 0.00 0.08 0.08 70 1001.0
20260507052346 13 149 0.0 1.6 0.00 0.08 0.08 70 1001.0
20260507051346 12 121 1.6 3.2 0.00 0.08 0.08 70 1000.9
20260507050346 12 130 0.0 3.2 0.00 0.13 0.08 70 1000.9
20260507045346 12 150 1.6 1.6 0.00 0.13 0.08 70 1000.7
20260507044346 12 144 1.6 3.2 0.00 0.13 0.08 71 1000.7
20260507043346 12 128 3.2 8.0 0.00 0.13 0.08 71 1000.5
20260507042346 12 156 0.0 1.6 0.00 0.13 0.08 71 1000.6
20260507041346 12 133 0.0 0.0 0.00 0.13 0.08 71 1000.4
20260507040345 12 148 1.6 4.8 0.00 0.13 0.08 71 1000.2
20260507035345 12 140 4.8 8.0 0.00 0.13 0.08 72 1000.3
20260507034346 12 119 3.2 6.4 0.00 0.13 0.08 72 1000.2
20260507033346 12 129 1.6 3.2 0.00 0.13 0.08 72 1000.3
20260507032346 12 151 0.0 1.6 0.00 0.13 0.08 72 1000.3
20260507031347 12 125 3.2 4.8 0.00 0.13 0.08 72 1000.3
20260507030345 12 135 3.2 3.2 0.00 0.13 0.08 73 1000.3
20260507025346 12 128 1.6 3.2 0.00 0.13 0.08 74 1000.3
20260507024345 12 114 3.2 3.2 0.00 0.13 0.08 74 1000.4
20260507023344 12 112 3.2 4.8 0.00 0.13 0.08 74 1000.2
20260507022345 12 112 4.8 6.4 0.00 0.13 0.08 74 1000.2
20260507021345 12 113 4.8 9.7 0.00 0.13 0.08 76 1000.2
20260507020345 12 128 1.6 6.4 0.08 0.13 0.08 76 1000.3
20260507015344 12 138 3.2 4.8 0.08 0.13 0.08 76 1000.3
20260507014342 12 126 3.2 6.4 0.08 0.13 0.08 77 1000.3
20260507013343 12 151 3.2 3.2 0.08 0.13 0.08 77 1000.3
20260507012342 12 130 3.2 6.4 0.08 0.13 0.08 77 1000.2
20260507011343 12 138 0.0 1.6 0.08 0.13 0.08 77 1000.2
20260507010342 13 146 1.6 3.2 0.00 0.08 0.00 77 1000.1
20260507005343 13 137 3.2 4.8 0.00 0.08 0.00 77 1000.1
20260507004343 13 124 0.0 3.2 0.00 0.08 0.00 77 1000.1
20260507003344 13 131 1.6 4.8 0.00 0.08 0.00 77 1000.1
20260507002342 13 147 3.2 8.0 0.00 0.08 0.00 77 999.9
20260507001342 13 147 1.6 3.2 0.00 0.08 0.00 77 1000.2
20260507000343 13 186 1.6 3.2 0.00 0.08 0.00 76 1000.3
20260506235341 13 139 1.6 4.8 0.00 0.08 0.00 76 1000.3
20260506234342 13 132 1.6 8.0 0.00 0.08 0.00 76 1000.1
20260506233342 13 129 1.6 1.6 0.00 0.08 0.00 76 1000.2
20260506232341 13 112 4.8 6.4 0.00 0.08 0.00 76 1000.3
20260506231342 13 126 3.2 6.4 0.00 0.08 0.00 76 1000.2
20260506230342 13 112 1.6 3.2 0.00 0.08 0.00 76 1000.3
20260506225342 13 135 0.0 1.6 0.00 0.08 0.00 76 1000.3
20260506224343 14 115 4.8 6.4 0.00 0.08 0.00 76 1000.3
20260506223341 13 125 3.2 6.4 0.00 0.08 0.00 76 1000.4
20260506222342 14 119 3.2 3.2 0.00 0.08 0.00 76 1000.4
20260506221341 14 126 4.8 8.0 0.00 0.08 0.00 77 1000.3
20260506220341 13 126 4.8 6.4 0.00 0.08 0.00 78 1000.5
20260506215731 13 112 6.4 8.0 0.00 0.08 0.08 79 1000.4
20260506214731 13 108 9.7 14.5 0.00 0.08 0.08 80 1000.4
20260506213731 14 122 3.2 4.8 0.00 0.08 0.08 82 1000.6
20260506212730 14 100 3.2 6.4 0.00 0.08 0.08 83 1000.5
20260506211730 14 131 4.8 6.4 0.00 0.08 0.08 83 1000.5
20260506210730 15 114 1.6 4.8 0.00 0.08 0.08 83 1000.5
20260506205730 15 126 1.6 4.8 0.00 0.08 0.08 83 1000.4
20260506204729 15 117 4.8 6.4 0.00 0.08 0.08 83 1000.3
20260506203730 15 126 4.8 6.4 0.00 0.08 0.08 83 1000.5
20260506202730 15 149 4.8 9.7 0.00 0.08 0.08 83 1000.5
20260506202343 15 144 0.0 3.2 0.00 0.08 0.08 83 1000.5
20260506201341 15 132 0.0 3.2 0.00 0.08 0.08 83 1000.5
20260506200342 15 131 1.6 3.2 0.00 0.08 0.08 83 1000.3
20260506195341 15 132 4.8 8.0 0.00 0.08 0.08 83 1000.1
20260506194340 15 136 3.2 4.8 0.00 0.08 0.08 82 1000.0
20260506193340 15 93 3.2 8.0 0.00 0.08 0.08 82 999.9
20260506192341 15 126 1.6 4.8 0.00 0.08 0.08 81 999.9
20260506191341 15 118 4.8 12.9 0.00 0.08 0.08 80 999.8
20260506190340 16 112 0.0 0.0 0.00 0.08 0.08 80 999.6
20260506185341 16 122 3.2 4.8 0.00 0.08 0.08 79 999.5
20260506184341 16 144 3.2 4.8 0.00 0.08 0.08 79 999.5
20260506183340 16 147 1.6 3.2 0.00 0.08 0.08 79 999.4
20260506182341 16 143 1.6 4.8 0.00 0.08 0.08 79 999.4
20260506181341 16 143 4.8 9.7 0.00 0.08 0.08 78 999.4
20260506180340 16 166 1.6 3.2 0.00 0.08 0.08 78 999.2
20260506175023 16 135 3.2 3.2 0.00 0.08 0.08 78 999.3
20260506174024 16 178 1.6 1.6 0.00 0.08 0.08 77 999.3
20260506173024 16 178 1.6 0.0 0.00 0.08 0.08 77 999.3
20260506172024 17 183 4.8 6.4 0.00 0.08 0.08 77 999.4
20260506171024 17 192 1.6 0.0 0.00 0.08 0.08 78 999.3
20260506170023 17 196 1.6 4.8 0.00 0.08 0.08 77 999.2
20260506165023 17 156 9.7 17.7 0.00 0.08 0.08 77 999.1
20260506164023 17 186 1.6 3.2 0.00 0.08 0.08 78 999.1
20260506163024 17 125 1.6 4.8 0.00 0.08 0.08 78 999.2
20260506162022 17 180 1.6 3.2 0.00 0.08 0.08 78 999.2
20260506161023 17 193 4.8 4.8 0.00 0.08 0.08 79 999.4
20260506160023 17 163 1.6 9.7 0.00 0.08 0.08 79 999.3
20260506155023 17 142 3.2 6.4 0.00 0.08 0.08 78 999.4
20260506154024 17 148 3.2 9.7 0.00 0.08 0.08 78 999.4
20260506153023 17 159 1.6 3.2 0.00 0.08 0.08 78 999.4
20260506152024 17 179 3.2 8.0 0.00 0.08 0.08 77 999.3
20260506151022 17 206 4.8 6.4 0.00 0.08 0.08 76 999.2
20260506150037 17 202 9.7 16.1 0.00 0.08 0.08 76 999.3
20260506145022 17 119 3.2 6.4 0.00 0.08 0.08 77 999.2
20260506144342 17 126 1.6 1.6 0.00 0.08 0.08 77 999.2
20260506143341 17 188 8.0 16.1 0.00 0.08 0.08 76 999.4
20260506142340 17 223 6.4 8.0 0.00 0.08 0.08 75 999.2
20260506141341 18 154 3.2 11.3 0.00 0.08 0.08 74 999.3
20260506140341 18 171 4.8 17.7 0.00 0.08 0.08 73 999.3
20260506135341 19 175 11.3 29.0 0.00 0.08 0.08 71 999.1
20260506134341 20 190 8.0 24.1 0.00 0.08 0.08 70 999.1
20260506133340 20 191 9.7 9.7 0.00 0.08 0.08 69 999.3
20260506132341 20 160 3.2 4.8 0.00 0.08 0.08 69 999.4
20260506131340 20 198 3.2 8.0 0.00 0.08 0.08 68 999.4
20260506130341 19 162 12.9 14.5 0.00 0.08 0.08 68 999.5
20260506125340 18 142 8.0 8.0 0.00 0.08 0.08 68 999.6
20260506124340 18 153 4.8 8.0 0.00 0.08 0.08 66 999.8
20260506123340 19 141 6.4 8.0 0.00 0.08 0.08 62 999.9
20260506122341 20 147 3.2 25.7 0.00 0.08 0.08 60 999.6
20260506121341 20 165 3.2 3.2 0.00 0.08 0.08 58 999.6
20260506120340 20 206 9.7 17.7 0.00 0.08 0.08 59 999.5
20260506115340 20 201 6.4 17.7 0.00 0.08 0.08 60 999.5
20260506114341 20 222 9.7 12.9 0.00 0.08 0.08 58 999.5
20260506113340 20 135 6.4 6.4 0.00 0.08 0.08 60 999.4
20260506112339 20 243 6.4 9.7 0.00 0.08 0.08 58 999.6
20260506111339 20 136 4.8 6.4 0.00 0.08 0.08 60 999.7
20260506110340 20 222 6.4 14.5 0.00 0.08 0.08 61 999.8
20260506105341 20 191 9.7 9.7 0.00 0.08 0.08 60 999.7
20260506104339 19 211 16.1 29.0 0.00 0.08 0.08 62 999.9
20260506103340 18 120 3.2 9.7 0.00 0.08 0.08 63 999.9
20260506102340 18 233 1.6 9.7 0.00 0.08 0.08 64 1000.1
20260506101339 18 162 4.8 4.8 0.00 0.08 0.08 65 1000.0
20260506100340 18 174 3.2 4.8 0.00 0.08 0.08 67 1000.1
20260506095936 18 119 3.2 11.3 0.00 0.08 0.08 71 1000.1
20260506094937 18 119 6.4 9.7 0.00 0.08 0.08 71 1000.0
20260506093936 18 98 9.7 12.9 0.00 0.08 0.08 73 999.9
20260506092936 17 172 1.6 3.2 0.00 0.08 0.08 76 1000.0
20260506091937 17 129 3.2 6.4 0.00 0.08 0.08 77 999.9
20260506090935 16 123 9.7 11.3 0.00 0.08 0.08 76 1000.2
20260506085936 16 128 4.8 6.4 0.00 0.08 0.08 78 1000.1
20260506084935 16 142 6.4 9.7 0.00 0.08 0.08 79 999.9
20260506083936 16 168 4.8 6.4 0.00 0.08 0.08 80 999.9
20260506082937 15 138 1.6 3.2 0.00 0.08 0.08 80 999.7